Temperature
25 25 24 25 28 29 31 32 33 33 34 33 32 32 30 28 27 25 25 24 21 21 21 21 20 19 19 19 19 19 19 19 19 19 19 19 19 19 19 19 19 19 19 19 19 19 19 19 19
25 25 26 28 30 31 32 32 32 32 33 33 32 32 29 28 26 25 24 23 21 21 21 20 20 19 19 19 19 19 19 19 19 19 19 19 19 19 19 19 19 19 19 19 19 19 19 19 19
25 25 27 31 32 32 32 33 33 33 33 33 32 30 29 27 26 24 24 23 21 20 20 21 20 19 19 19 19 19 19 19 19 18 18 19 19 19 19 19 19 19 19 19 19 18 18 19 19
24 28 29 31 33 34 34 33 33 33 33 33 32 29 28 27 25 24 24 23 21 20 20 21 20 20 19 19 18 18 19 19 19 18 18 19 19 19 19 19 19 19 19 18 18 18 18 19 19
26 29 31 32 33 35 35 34 33 33 33 33 32 28 27 25 24 24 24 23 22 20 20 21 20 19 19 19 19 18 18 18 18 18 18 19 18 18 19 19 18 18 18 19 19 19 18 18 18
28 31 31 32 33 35 35 34 33 33 33 32 31 28 26 25 24 24 24 24 23 21 20 21 20 19 19 19 19 19 18 18 19 19 19 19 19 19 19 18 18 18 18 18 18 19 18 18 18
29 31 31 33 34 34 35 34 34 33 33 33 32 29 26 25 24 24 24 24 24 21 20 21 21 20 20 20 19 19 19 19 19 20 19 19 19 19 18 18 19 19 18 18 18 18 18 18 18
29 31 31 33 34 35 35 34 34 33 32 32 32 30 26 25 25 24 24 24 24 22 20 20 21 20 20 20 20 20 20 20 20 19 19 19 19 19 19 19 19 19 18 18 18 18 18 18 18
29 30 30 33 34 36 36 34 34 33 32 31 31 30 26 25 25 24 24 23 23 22 20 20 20 20 20 20 20 20 20 20 20 19 19 19 19 19 18 18 18 18 18 19 19 19 18 18 18
30 30 31 34 35 35 35 34 34 33 32 31 30 28 26 25 24 24 23 23 22 22 21 20 20 20 19 19 19 19 20 19 19 19 19 19 19 18 18 18 18 18 18 19 19 19 18 18 18
31 31 32 34 35 34 34 34 34 33 32 31 30 27 26 25 24 24 23 23 22 21 21 21 20 20 19 19 19 19 19 19 19 18 18 18 18 18 18 18 18 18 18 18 18 18 18 18 17
31 32 33 33 34 33 33 34 33 32 31 31 30 28 26 26 24 24 23 23 21 21 21 21 20 20 20 20 20 20 19 19 19 19 19 18 18 18 18 18 18 18 18 18 18 18 18 18 17
32 32 32 33 33 33 33 33 33 31 30 29 28 27 26 26 25 24 23 23 22 22 21 21 20 20 20 20 20 20 20 20 19 19 19 19 18 18 18 18 18 18 18 18 18 18 18 18 18
32 32 32 33 33 33 33 33 33 30 30 29 28 27 26 26 25 25 24 23 22 21 21 21 20 20 20 20 20 19 19 19 19 19 19 19 18 18 18 19 19 19 18 18 18 18 18 18 18
31 32 32 33 33 33 33 32 33 30 29 29 28 27 27 27 26 25 24 23 22 22 21 21 21 20 21 20 20 19 19 19 19 19 18 18 18 18 18 19 19 19 18 18 18 18 18 18 18
31 30 30 32 33 33 32 31 33 30 29 29 28 28 27 26 26 25 24 23 23 22 21 21 20 20 20 20 20 19 19 19 19 19 18 18 19 19 18 19 19 19 19 18 18 19 18 18 18
30 29 30 31 33 33 32 31 33 32 30 29 28 27 27 26 25 25 24 23 22 22 21 21 20 20 19 20 20 20 19 19 19 19 19 19 18 18 18 18 19 19 19 19 18 18 18 18 18
30 30 31 31 33 33 32 32 33 32 30 28 27 27 27 26 25 25 24 23 23 22 21 20 20 20 19 19 19 20 20 20 19 19 19 19 18 18 18 18 18 18 19 19 19 18 18 18 18
31 30 30 32 34 33 32 31 32 32 31 30 28 27 26 25 24 24 24 23 22 21 21 20 20 19 19 19 19 19 19 19 19 19 19 19 19 18 18 18 18 18 18 19 19 18 18 18 18
29 29 29 31 32 31 30 30 31 32 30 29 28 27 26 25 23 23 22 22 22 21 20 20 19 19 19 18 18 18 19 19 18 18 18 18 18 18 18 18 18 18 18 18 18 18 18 18 18
28 28 29 29 30 31 29 28 30 31 30 28 26 25 25 24 22 21 21 20 19 19 19 18 18 18 18 18 18 18 18 18 18 18 17 17 17 17 17 18 18 18 18 18 18 18 18 18 18
28 29 29 29 28 28 29 27 29 30 30 28 26 24 23 22 21 19 19 18 18 18 17 18 18 18 18 18 18 17 17 17 17 17 17 17 17 16 17 17 17 17 18 18 18 18 18 18 18
27 28 27 27 27 27 28 27 28 30 28 27 25 22 20 19 18 17 17 17 17 17 16 16 17 17 17 17 17 17 16 16 16 16 16 16 16 16 16 16 17 17 17 17 18 18 18 18 17
28 27 27 27 26 25 26 27 27 29 28 26 22 20 18 17 16 16 16 16 16 16 16 15 15 16 16 16 16 16 16 16 16 16 16 16 16 16 16 16 16 16 17 17 17 17 17 17 17
27 25 23 23 24 25 27 27 27 28 28 24 20 18 17 16 16 15 15 15 15 15 15 15 15 15 15 15 15 15 16 16 16 15 15 15 15 15 15 16 16 16 16 16 16 17 17 17 17
25 25 22 20 22 25 25 24 22 23 23 22 19 17 16 15 15 15 14 14 15 15 15 15 15 15 15 15 15 15 15 16 15 15 15 14 14 14 14 14 15 15 15 15 15 16 16 17 17
25 24 25 22 21 21 23 24 22 20 20 19 17 16 16 15 15 15 15 14 14 14 14 15 15 14 14 14 14 14 15 15 15 15 14 14 14 14 14 14 14 14 15 15 15 15 16 16 16
24 24 23 21 19 19 22 23 23 20 19 18 17 16 16 15 15 14 14 14 14 14 14 14 14 14 14 14 14 14 14 14 14 14 14 14 14 14 14 14 14 14 14 14 15 15 15 15 15
20 18 17 18 19 19 19 21 21 20 19 16 15 15 15 16 16 15 15 14 14 14 14 14 14 14 14 14 14 14 14 14 14 13 13 13 13 13 14 14 14 14 14 14 14 14 14 14 14
21 18 16 14 14 15 16 18 21 19 19 18 16 16 16 16 16 16 15 15 14 14 13 13 13 13 13 13 13 13 13 13 13 13 13 13 13 13 13 13 14 14 14 14 14 14 14 14 14
Wind_Speed
14 16 12 8 6 8 3 6 9 9 12 16 13 12 20 16 13 14 13 20 25 21 20 19 17 15 14 14 15 15 14 14 12 11 11 11 11 11 11 11 10 9 8 7 8 9 8 8 8
13 16 10 6 8 2 5 12 12 11 10 11 10 15 20 16 18 15 15 21 24 20 19 18 17 14 13 13 13 15 15 14 12 11 11 11 11 10 10 10 9 8 7 6 6 7 7 7 7
13 15 7 7 10 3 7 10 8 9 9 11 14 15 13 12 16 14 16 21 22 19 20 20 17 15 13 12 11 14 15 14 12 11 11 11 11 10 9 9 8 7 7 6 5 5 6 6 6
8 7 6 9 10 5 10 10 8 10 9 6 12 13 12 14 16 17 17 20 21 20 21 20 19 17 15 13 12 11 13 13 11 10 10 9 9 10 9 8 7 7 7 6 5 4 4 5 6
9 7 10 12 9 3 10 11 8 9 6 7 15 16 15 16 20 18 16 17 19 20 20 19 18 16 15 14 13 11 11 11 10 9 8 7 6 6 7 7 6 6 6 6 5 3 3 3 5
8 9 12 12 8 2 7 9 6 8 7 7 15 17 12 16 17 16 15 14 19 21 19 19 18 17 15 14 14 13 12 12 11 11 9 8 7 6 6 6 6 5 5 4 4 3 3 4 5
10 12 14 15 9 5 5 6 5 6 3 5 10 15 11 14 16 16 13 13 17 22 19 18 18 16 16 15 16 15 14 12 12 11 10 8 8 7 7 8 8 7 6 5 5 5 5 6 6
11 12 16 16 14 7 6 6 3 4 7 6 3 9 13 18 17 18 13 12 15 19 17 16 17 16 15 14 16 16 15 13 11 10 10 9 10 11 12 12 13 11 9 8 8 8 8 9 9
14 13 14 16 12 7 7 5 5 2 9 6 5 12 23 23 20 18 13 13 10 14 15 15 15 15 15 15 15 15 13 13 12 12 12 12 12 14 15 17 16 15 12 11 11 11 11 12 13
13 13 18 18 11 11 4 2 5 6 11 8 11 19 23 23 20 17 15 15 12 11 12 14 13 11 12 12 14 13 13 14 14 14 15 13 13 12 10 14 16 16 14 12 13 13 13 13 13
16 17 18 18 8 8 10 8 4 9 11 13 15 20 20 21 19 17 15 14 11 10 10 12 13 9 10 8 12 10 11 13 14 13 14 12 10 10 9 10 14 13 13 11 12 14 13 12 12
18 18 18 18 6 4 10 10 3 3 3 11 13 21 20 20 19 17 14 14 13 12 12 10 11 8 6 5 7 5 5 8 7 11 12 9 5 3 3 2 6 7 9 8 8 8 12 12 11
18 18 17 16 11 7 10 10 5 8 11 15 17 20 19 19 18 17 15 15 14 10 10 9 9 7 4 2 1 4 4 3 5 4 11 9 3 4 2 1 2 6 7 8 6 5 4 5 4
16 16 18 17 12 14 11 12 9 11 11 15 17 16 17 17 18 17 16 13 14 13 11 11 9 8 6 4 3 3 3 2 4 4 7 10 7 4 4 4 3 5 7 7 5 4 1 2 4
16 15 17 18 14 15 12 14 12 15 13 12 15 16 17 15 16 16 15 12 14 14 11 10 9 9 8 8 7 5 5 5 5 6 10 8 9 7 5 5 5 5 8 5 4 4 3 5 7
14 17 18 18 18 17 16 15 11 19 18 14 12 13 13 12 12 14 15 13 12 12 11 10 11 12 10 8 7 5 6 5 5 8 9 11 12 10 6 5 6 6 5 3 4 4 5 6 6
15 17 20 20 21 21 19 16 13 14 15 11 11 12 12 13 10 10 15 15 12 10 11 11 9 11 12 11 8 7 5 4 5 6 6 6 9 10 7 6 5 6 4 5 6 5 5 6 6
15 17 20 20 19 22 19 14 10 8 12 12 10 11 12 12 10 8 12 14 13 10 10 9 7 7 9 8 6 6 7 5 4 5 5 6 6 8 8 5 6 6 6 5 6 6 6 4 4
17 16 15 14 12 10 13 12 12 10 10 13 13 11 12 10 9 6 5 6 10 10 9 8 7 6 6 5 6 6 6 6 6 6 7 7 8 10 7 9 8 8 8 7 7 6 7 6 4
12 13 15 16 9 3 7 11 14 13 9 2 6 8 11 12 10 7 7 7 7 8 7 6 5 5 4 2 2 2 4 5 5 5 6 8 9 11 11 10 9 10 9 8 6 6 5 4 5
13 15 16 17 16 11 11 17 19 17 10 8 6 5 7 12 12 10 8 8 7 7 6 6 5 5 3 3 3 3 4 5 7 8 7 7 10 11 10 11 9 10 9 6 5 5 6 6 6
13 10 13 15 15 13 14 16 18 20 19 13 12 10 8 9 11 11 8 7 5 4 6 6 4 3 2 2 3 4 5 7 8 9 9 10 8 8 9 9 10 9 7 6 5 5 5 7 7
13 11 12 15 15 17 18 17 18 17 15 16 15 14 13 11 11 9 7 5 3 2 3 3 2 1 0 2 3 4 6 6 7 9 11 11 10 8 8 9 9 8 7 7 6 4 5 5 6
11 13 15 16 15 21 21 21 21 17 14 17 15 12 13 11 9 7 6 4 3 2 2 3 4 3 1 2 3 4 6 7 9 10 10 10 7 5 5 6 6 7 6 5 4 3 3 2 3
12 13 12 15 17 21 20 21 15 10 5 22 22 17 14 11 8 7 6 4 2 1 1 2 4 3 2 1 2 3 5 6 7 8 8 9 7 5 5 3 1 1 1 0 1 2 1 0 2
11 13 11 10 16 18 10 8 4 11 11 17 19 17 14 12 8 7 7 4 3 2 1 1 2 1 2 2 2 3 4 5 5 7 7 6 5 6 6 5 5 4 4 3 2 1 1 1 2
13 13 15 11 16 19 17 11 7 7 6 13 16 14 12 9 8 8 7 5 3 2 2 3 3 3 3 3 3 1 3 4 5 5 6 5 5 5 7 7 7 6 6 4 3 2 2 3 3
11 14 10 8 8 12 15 20 7 13 9 10 12 12 10 9 7 9 8 6 3 2 1 1 1 1 2 3 4 3 2 4 4 4 6 6 6 6 6 7 7 7 6 6 5 5 6 5 6
5 6 9 8 8 9 11 6 5 6 10 14 13 11 10 10 8 8 8 7 5 2 1 1 1 2 2 2 2 3 3 4 4 4 4 4 3 4 4 4 4 4 3 3 4 4 5 5 6
2 3 3 3 6 8 8 7 9 5 6 15 16 14 11 9 8 7 6 6 4 1 1 1 2 3 4 4 2 2 4 5 5 5 4 3 2 1 1 0 1 2 1 1 2 4 4 4 5
Wind_Direction
266 265 257 272 257 236 271 74 69 61 63 57 43 53 68 57 67 95 120 114 112 117 123 124 121 123 127 136 147 150 149 147 145 143 140 133 121 115 110 106 105 109 113 118 122 117 111 111 121
277 277 275 253 260 287 62 77 69 67 78 78 57 64 74 72 93 109 117 116 116 123 130 126 124 124 126 129 144 153 151 154 155 154 147 139 128 122 118 113 111 110 111 111 121 131 123 123 128
270 272 273 260 270 35 66 77 90 96 77 70 73 58 65 94 105 113 124 124 122 127 125 128 131 129 128 126 128 148 154 157 160 158 147 142 136 133 127 120 117 112 109 108 103 120 131 137 142
271 263 246 262 291 45 76 88 108 107 80 65 91 81 82 89 104 120 138 127 123 126 127 136 137 136 136 134 130 136 151 155 157 157 146 141 140 140 133 131 132 126 111 102 106 116 133 157 162
257 267 263 269 280 49 90 102 117 104 82 74 83 94 95 95 112 131 134 130 132 125 128 135 137 137 139 141 140 139 141 145 147 145 141 142 149 157 152 148 144 137 127 122 122 123 155 175 178
255 254 267 272 275 236 102 106 121 107 106 102 105 109 103 117 125 136 135 145 131 127 126 131 137 139 141 146 147 145 147 147 147 151 153 158 164 170 174 170 165 161 151 152 159 157 167 200 204
257 271 275 282 282 233 157 136 140 126 124 102 116 117 129 138 140 134 140 142 132 125 129 139 142 145 146 147 152 155 156 154 154 158 165 172 181 190 195 198 194 193 194 200 207 210 208 218 224
258 274 280 280 278 271 151 145 180 176 141 95 120 126 147 146 141 133 151 132 124 127 137 143 149 151 155 155 155 158 159 161 168 174 181 191 201 207 210 212 210 208 212 221 226 230 230 228 228
242 259 267 268 277 275 138 162 206 161 123 124 58 82 137 144 142 142 149 131 137 133 138 146 148 156 162 164 163 165 168 175 184 192 199 207 220 221 214 221 215 213 217 222 227 231 234 236 235
229 244 252 264 310 333 33 178 210 171 142 150 117 106 133 143 146 150 153 149 151 137 146 149 151 161 169 168 161 175 178 183 201 199 195 208 229 245 229 212 205 207 213 222 230 235 236 235 242
226 240 261 278 299 314 314 310 210 191 179 171 152 139 146 148 151 154 160 153 148 151 166 152 150 166 179 168 169 189 187 174 203 201 185 206 224 234 219 180 188 204 214 222 227 228 232 235 239
234 244 254 273 306 312 280 299 273 180 130 157 154 145 155 158 160 161 161 152 156 173 172 163 149 170 198 188 172 182 190 173 208 181 179 214 206 236 273 140 158 207 214 214 235 223 223 229 240
232 245 258 258 268 265 273 282 279 115 103 121 131 141 160 165 164 162 164 163 161 178 167 149 146 164 197 281 153 193 225 182 203 184 184 209 210 205 213 205 202 244 220 199 226 259 229 202 225
247 238 256 263 246 251 251 260 234 133 136 138 138 149 170 172 168 166 168 165 161 178 176 157 161 164 180 206 244 263 238 167 256 248 230 204 213 205 174 190 208 248 257 215 195 246 246 219 244
258 257 252 253 245 240 245 256 235 140 147 155 158 164 177 173 170 168 166 168 171 179 178 159 170 176 184 205 213 233 241 215 225 235 243 225 220 218 198 198 206 230 247 234 217 247 242 241 239
243 248 252 249 238 236 235 244 227 162 163 173 182 171 163 159 174 167 164 173 180 176 169 171 186 185 185 200 215 229 236 229 219 234 235 218 221 228 208 206 219 217 233 228 229 230 232 243 253
239 239 245 246 236 223 225 236 256 187 169 172 168 156 154 157 180 169 167 177 180 170 163 172 196 186 184 194 202 229 244 252 251 252 257 236 224 235 232 227 230 218 208 201 231 216 218 240 257
242 235 234 241 242 221 218 223 226 189 158 163 183 166 158 160 172 170 172 178 175 171 162 169 190 198 180 184 195 226 240 245 252 265 279 291 276 258 254 254 238 240 232 207 218 232 223 234 252
269 290 295 270 250 225 215 234 249 232 201 189 171 160 155 155 157 168 167 153 158 156 152 171 191 199 192 191 208 222 235 238 240 246 251 260 271 277 269 265 257 240 244 232 219 222 231 227 221
294 286 285 297 295 236 250 259 255 238 201 168 127 146 152 145 139 112 73 59 94 122 143 165 188 181 183 214 249 285 297 290 286 274 263 252 262 270 271 255 247 241 242 238 227 226 234 241 221
268 265 265 270 282 261 243 253 252 245 204 163 159 159 162 161 152 132 98 71 73 90 101 95 78 75 66 16 332 310 302 291 286 283 277 258 251 248 251 261 252 245 245 241 230 227 234 244 246
265 292 295 274 272 266 246 251 242 234 218 192 179 160 143 131 127 124 113 97 84 85 87 79 71 55 37 346 313 317 306 298 304 307 301 300 291 271 254 255 252 240 231 222 218 220 221 239 254
288 303 304 293 281 274 263 259 258 255 207 187 174 160 138 115 108 109 107 101 97 97 107 119 117 128 44 337 333 320 306 310 314 312 306 304 293 277 268 259 253 238 224 216 208 216 212 214 238
281 286 282 275 269 262 258 260 261 261 209 173 138 136 135 122 112 105 99 99 122 158 179 166 165 172 212 312 336 338 331 324 315 314 316 316 311 299 284 270 251 239 230 222 205 182 183 192 239
273 272 271 264 253 254 255 255 267 299 177 149 144 140 128 117 112 105 96 84 66 48 259 224 203 220 230 237 357 7 348 319 310 322 325 330 335 339 337 326 313 254 227 80 63 85 83 252 284
279 276 265 266 270 276 280 274 347 38 79 119 122 122 120 119 122 117 105 90 66 45 349 255 189 79 50 55 41 10 339 323 326 335 332 334 345 353 3 21 41 55 54 39 22 25 352 294 284
281 270 270 262 267 274 273 258 165 141 137 116 119 119 117 124 137 128 115 105 81 46 27 45 92 75 41 6 328 290 358 357 351 359 3 5 9 7 18 24 33 46 47 38 20 354 322 325 325
293 299 266 247 254 257 257 256 229 173 161 119 118 120 125 140 143 134 130 126 117 94 50 25 76 58 346 331 328 354 44 40 20 25 29 24 22 28 37 34 29 31 31 24 15 352 342 334 289
357 355 333 314 282 278 274 281 64 147 147 130 135 145 155 160 157 149 146 144 140 156 207 227 259 288 301 326 349 352 21 65 57 53 51 49 42 33 34 38 26 17 15 7 355 333 307 274 271
111 103 72 9 322 322 307 297 35 22 170 159 157 158 158 154 150 149 146 138 133 177 249 294 334 338 337 342 344 30 23 34 50 57 48 50 53 70 86 35 323 306 298 293 309 317 324 330 349
Height
1500 1498 1498 1500 1495 1489 1482 1470 1464 1466 1467 1472 1474 1474 1483 1491 1497 1512 1516 1517 1517 1520 1524 1527 1529 1532 1534 1537 1539 1541 1543 1545 1547 1548 1550 1551 1552 1553 1554 1555 1556 1557 1558 1559 1560 1560 1561 1562 1563
1500 1500 1501 1498 1491 1488 1483 1470 1471 1473 1473 1475 1477 1478 1487 1496 1502 1509 1515 1518 1518 1521 1525 1528 1531 1533 1536 1538 1540 1542 1544 1546 1548 1550 1551 1552 1553 1554 1556 1557 1557 1558 1559 1560 1560 1561 1562 1562 1563
1500 1501 1500 1489 1481 1481 1482 1471 1473 1474 1475 1476 1482 1486 1493 1501 1506 1510 1516 1519 1520 1523 1526 1529 1531 1534 1537 1539 1541 1543 1545 1547 1549 1551 1552 1553 1554 1555 1557 1558 1559 1560 1560 1561 1562 1562 1562 1563 1563
1503 1502 1496 1487 1479 1468 1468 1471 1473 1475 1478 1479 1482 1492 1501 1505 1508 1512 1517 1520 1521 1524 1526 1529 1532 1534 1537 1540 1542 1544 1546 1547 1549 1551 1553 1554 1555 1556 1557 1558 1559 1560 1561 1562 1563 1563 1563 1563 1563
1505 1500 1491 1484 1474 1464 1465 1470 1474 1476 1480 1480 1484 1497 1505 1509 1511 1515 1519 1522 1523 1525 1526 1530 1532 1535 1537 1540 1542 1545 1546 1548 1550 1552 1553 1554 1556 1557 1558 1559 1560 1560 1561 1562 1563 1563 1563 1563 1563
1505 1495 1493 1487 1475 1464 1465 1472 1474 1477 1482 1484 1488 1498 1508 1512 1513 1516 1520 1523 1525 1526 1527 1530 1533 1535 1537 1540 1542 1544 1547 1548 1550 1551 1553 1554 1555 1557 1558 1559 1559 1560 1561 1562 1562 1562 1562 1563 1563
1504 1494 1490 1480 1473 1468 1465 1470 1474 1478 1482 1482 1486 1496 1507 1512 1514 1517 1520 1524 1527 1526 1527 1530 1533 1535 1538 1540 1542 1544 1546 1548 1549 1551 1552 1554 1555 1556 1557 1558 1559 1559 1560 1561 1561 1561 1561 1561 1562
1502 1496 1490 1480 1473 1466 1463 1469 1474 1477 1481 1485 1488 1492 1503 1510 1514 1517 1521 1524 1528 1528 1529 1530 1532 1535 1538 1540 1542 1543 1545 1547 1549 1550 1551 1553 1554 1555 1555 1556 1557 1558 1558 1559 1559 1559 1560 1560 1560
1501 1500 1495 1479 1468 1462 1462 1469 1473 1477 1482 1488 1490 1491 1497 1507 1513 1517 1521 1524 1528 1530 1530 1532 1533 1535 1537 1540 1542 1543 1545 1546 1548 1549 1550 1551 1552 1552 1553 1554 1554 1555 1556 1556 1556 1557 1557 1558 1558
1496 1497 1487 1472 1465 1463 1464 1469 1472 1476 1482 1488 1493 1498 1502 1507 1512 1516 1519 1523 1527 1530 1532 1533 1534 1536 1539 1541 1542 1543 1544 1545 1546 1547 1547 1549 1550 1552 1553 1553 1553 1553 1553 1553 1554 1554 1555 1555 1555
1490 1489 1480 1471 1468 1470 1471 1470 1471 1475 1478 1485 1491 1498 1504 1507 1512 1515 1519 1522 1526 1529 1532 1534 1533 1536 1538 1542 1542 1543 1543 1543 1545 1546 1547 1548 1549 1551 1552 1552 1551 1551 1551 1551 1552 1553 1553 1553 1553
1485 1482 1479 1475 1471 1475 1475 1473 1473 1476 1476 1482 1488 1495 1502 1507 1511 1514 1518 1521 1524 1528 1531 1533 1533 1535 1539 1542 1543 1544 1544 1543 1544 1545 1545 1546 1547 1548 1550 1550 1550 1550 1550 1550 1550 1550 1551 1551 1552
1481 1480 1477 1476 1475 1478 1477 1476 1476 1479 1480 1484 1489 1494 1501 1506 1510 1514 1517 1521 1523 1527 1529 1531 1532 1533 1536 1538 1540 1541 1542 1543 1543 1544 1543 1543 1544 1545 1545 1545 1546 1547 1548 1548 1548 1548 1549 1550 1550
1476 1476 1477 1473 1473 1476 1475 1476 1474 1479 1482 1484 1490 1496 1501 1505 1509 1512 1516 1519 1521 1524 1527 1529 1530 1531 1533 1535 1536 1538 1540 1540 1540 1541 1541 1541 1542 1542 1542 1542 1542 1543 1544 1546 1546 1546 1546 1547 1547
1476 1475 1474 1472 1471 1473 1474 1476 1470 1476 1481 1485 1489 1494 1499 1503 1507 1511 1514 1517 1520 1522 1525 1527 1528 1530 1531 1533 1534 1536 1537 1537 1537 1538 1538 1539 1539 1539 1539 1539 1539 1539 1541 1542 1543 1543 1543 1544 1544
1476 1478 1480 1471 1468 1469 1474 1480 1467 1472 1477 1483 1486 1489 1494 1499 1505 1509 1512 1516 1519 1521 1523 1525 1527 1528 1529 1530 1532 1533 1534 1535 1535 1535 1536 1536 1535 1536 1536 1536 1536 1537 1537 1538 1539 1540 1540 1540 1540
1477 1482 1479 1469 1460 1461 1467 1472 1467 1467 1472 1479 1484 1487 1492 1498 1504 1508 1510 1514 1517 1519 1520 1522 1525 1526 1527 1528 1529 1531 1531 1532 1532 1533 1534 1534 1534 1534 1535 1534 1535 1535 1533 1533 1535 1536 1537 1538 1538
1477 1471 1469 1464 1453 1453 1460 1464 1464 1466 1473 1482 1484 1483 1489 1496 1503 1507 1509 1511 1514 1517 1519 1520 1522 1524 1525 1526 1527 1528 1529 1529 1529 1530 1531 1531 1531 1532 1532 1532 1532 1532 1532 1530 1531 1532 1533 1534 1535
1466 1466 1465 1454 1447 1450 1459 1464 1465 1466 1471 1476 1480 1484 1488 1495 1501 1506 1508 1510 1512 1514 1516 1518 1520 1521 1523 1524 1525 1526 1526 1526 1526 1527 1527 1527 1528 1528 1528 1528 1528 1528 1528 1528 1528 1529 1529 1530 1531
1472 1475 1473 1462 1451 1458 1466 1469 1466 1467 1470 1475 1479 1485 1488 1494 1500 1504 1507 1509 1510 1512 1513 1515 1517 1518 1520 1522 1523 1523 1523 1523 1523 1523 1523 1523 1522 1522 1522 1522 1522 1523 1523 1524 1524 1525 1526 1526 1528
1479 1478 1475 1471 1462 1460 1470 1476 1469 1465 1468 1474 1481 1486 1489 1493 1498 1502 1505 1508 1509 1510 1512 1513 1514 1515 1517 1518 1519 1519 1519 1519 1519 1519 1518 1517 1516 1514 1514 1514 1515 1516 1518 1518 1520 1521 1522 1523 1525
1480 1470 1469 1469 1473 1474 1472 1484 1468 1461 1462 1469 1477 1484 1488 1492 1496 1500 1504 1507 1508 1509 1509 1510 1512 1513 1515 1516 1517 1516 1516 1516 1515 1514 1512 1510 1509 1508 1506 1507 1508 1510 1512 1513 1514 1516 1517 1519 1520
1477 1473 1476 1474 1476 1478 1472 1478 1468 1452 1457 1465 1474 1483 1488 1492 1496 1500 1503 1506 1508 1509 1509 1509 1510 1512 1512 1513 1513 1513 1513 1513 1511 1509 1506 1503 1502 1501 1500 1501 1502 1503 1505 1507 1508 1509 1512 1514 1515
1475 1477 1478 1478 1480 1489 1476 1477 1471 1454 1452 1460 1474 1485 1490 1494 1499 1501 1503 1505 1507 1508 1509 1509 1510 1510 1511 1511 1511 1511 1510 1509 1507 1504 1501 1498 1496 1494 1494 1494 1496 1498 1500 1502 1503 1504 1506 1508 1510
1478 1487 1498 1498 1492 1484 1467 1469 1464 1451 1446 1455 1469 1482 1488 1493 1499 1501 1503 1504 1506 1507 1508 1509 1509 1510 1510 1510 1509 1508 1507 1505 1503 1501 1498 1495 1493 1491 1491 1491 1492 1494 1496 1498 1499 1499 1501 1503 1505
1482 1486 1505 1517 1502 1481 1469 1475 1476 1467 1464 1466 1474 1484 1490 1494 1499 1501 1502 1503 1505 1506 1507 1508 1509 1509 1508 1508 1507 1506 1504 1502 1500 1498 1496 1494 1492 1491 1490 1490 1490 1491 1492 1493 1494 1496 1497 1499 1500
1483 1484 1481 1494 1498 1499 1482 1470 1474 1474 1476 1474 1481 1488 1492 1496 1499 1500 1501 1502 1504 1505 1506 1506 1507 1507 1507 1506 1506 1504 1502 1500 1498 1496 1495 1493 1492 1491 1490 1489 1489 1490 1490 1491 1492 1493 1494 1494 1495
1482 1482 1484 1495 1506 1504 1485 1473 1471 1475 1479 1481 1486 1490 1494 1497 1498 1499 1501 1502 1503 1504 1505 1505 1506 1506 1506 1506 1505 1505 1502 1499 1497 1495 1494 1492 1492 1490 1489 1489 1488 1489 1489 1489 1489 1489 1490 1491 1495
1492 1504 1508 1501 1497 1502 1498 1483 1473 1474 1478 1483 1488 1491 1493 1494 1496 1499 1500 1502 1504 1504 1505 1505 1505 1505 1505 1504 1504 1503 1501 1499 1497 1496 1494 1492 1491 1490 1489 1488 1487 1487 1487 1487 1487 1487 1489 1492 1494
1491 1502 1512 1525 1523 1516 1512 1497 1476 1479 1477 1476 1480 1485 1489 1492 1494 1497 1500 1502 1504 1505 1505 1505 1504 1504 1504 1503 1502 1502 1501 1500 1499 1497 1495 1493 1492 1491 1490 1489 1487 1487 1487 1487 1487 1488 1490 1492 1492